Weather History for Shannon, Ireland

Change the Weather History Date:

Monday, November 25, 2013

  Actual Average Record
Temperature  
Mean Temperature 43 °F -  
Max Temperature 45 °F 48 °F 55 °F (1999)
Min Temperature 41 °F 38 °F 29 °F (2012)
Degree Days  
Heating Degree Days 22    
Moisture  
Dew Point 41 °F    
Average Humidity 90    
Maximum Humidity 100    
Minimum Humidity 75    
Precipitation  
Precipitation 0.00 in 0.13 in - ()
Sea Level Pressure  
Sea Level Pressure 30.74 in    
Wind  
Wind Speed 2 mph ()    
Max Wind Speed 7 mph    
Max Gust Speed -    
Visibility 7.0 miles    
Events      
Averages and records for this station are not official NWS values.
T = Trace of Precipitation, MM = Missing Value Source: Averaged Metar Reports

Daily Weather History Graph

Daily Weather History Graph

Search for Another Location

Airport:

Trip Planner

Search our weather history database for the weather conditions in past years. The results will help you decide how hot, cold, wet, or windy it might be!

Date:

Astronomy

Nov. 25, 2013 Rise Set
Actual Time 8:15 AM GMT 4:29 PM GMT
Civil Twilight 7:35 AM GMT 5:09 PM GMT
Nautical Twilight 6:52 AM GMT 5:52 PM GMT
Astronomical Twilight 6:11 AM GMT 6:33 PM GMT
Moon No Moon Rise 12:56 PM GMT (11/25)
Length of Visible Light 9h 33m
Length of Day
8h 13m
Waning Gibbous, 53% of the Moon is Illuminated
Nov 25
Waning Gibbous
Nov 25
Last Quarter
Dec 3
New
Dec 9
First Quarter
Dec 17
Full

Hourly Weather History & Observations

Time (GMT) Temp. Windchill Dew Point Humidity Pressure Visibility Wind Dir Wind Speed Gust Speed Precip Events Conditions
12:00 AM 43 °F - 42 °F 93% 30.69 in 12 mi NNE 2.2 mph - -   Overcast
12:00 AM 42.8 °F - 41.0 °F 93% 30.69 in 6.2 mi Variable 2.3 mph - N/A   Overcast
12:30 AM 42.8 °F - 41.0 °F 93% 30.69 in 6.2 mi SW 2.3 mph - N/A   Mostly Cloudy
1:00 AM 42.8 °F - 41.0 °F 93% 30.69 in 6.2 mi ENE 1.2 mph - N/A   Overcast
1:30 AM 42.8 °F - 41.0 °F 93% 30.69 in 6.2 mi Calm Calm - N/A   Overcast
2:00 AM 42.8 °F - 41.0 °F 93% 30.69 in 6.2 mi ENE 2.3 mph - N/A   Overcast
2:30 AM 42.8 °F - 41.0 °F 93% 30.69 in 6.2 mi Calm Calm - N/A   Overcast
3:00 AM 42.8 °F - 41.0 °F 93% 30.69 in 6.2 mi East 1.2 mph - N/A   Overcast
3:30 AM 42.8 °F - 41.0 °F 93% 30.71 in 6.2 mi North 1.2 mph - N/A   Overcast
4:00 AM 42.8 °F - 41.0 °F 93% 30.69 in 6.2 mi North 2.3 mph - N/A   Overcast
4:30 AM 42.8 °F - 41.0 °F 93% 30.69 in 6.2 mi North 2.3 mph - N/A   Overcast
5:00 AM 42.8 °F - 41.0 °F 93% 30.71 in 6.2 mi NW 1.2 mph - N/A   Overcast
5:30 AM 42.8 °F - 41.0 °F 93% 30.71 in 6.2 mi North 2.3 mph - N/A   Overcast
6:00 AM 42 °F - 41 °F 94% 30.72 in 16 mi NE 2.2 mph - -   Overcast
6:00 AM 42.8 °F - 41.0 °F 93% 30.71 in 6.2 mi NE 2.3 mph - N/A   Overcast
6:30 AM 42.8 °F - 41.0 °F 93% 30.71 in 6.2 mi Calm Calm - N/A   Overcast
7:00 AM 42.8 °F - 41.0 °F 93% 30.74 in 6.2 mi Calm Calm - N/A   Overcast
7:30 AM 41.0 °F - 41.0 °F 100% 30.74 in 6.2 mi NW 1.2 mph - N/A   Overcast
8:00 AM 41.0 °F - 41.0 °F 100% 30.74 in 6.2 mi NNE 1.2 mph - N/A   Overcast
8:30 AM 41.0 °F - 41.0 °F 100% 30.74 in 6.2 mi North 1.2 mph - N/A   Overcast
9:00 AM 42.8 °F - 41.0 °F 93% 30.74 in 6.2 mi Calm Calm - N/A   Overcast
9:30 AM 42.8 °F - 41.0 °F 93% 30.74 in 6.2 mi ESE 2.3 mph - N/A   Mostly Cloudy
10:00 AM 42.8 °F 40.1 °F 41.0 °F 93% 30.74 in 6.2 mi SE 4.6 mph - N/A   Overcast
10:30 AM 44.6 °F 43.1 °F 42.8 °F 93% 30.74 in 6.2 mi SE 3.5 mph - N/A   Overcast
11:00 AM 44.6 °F 41.4 °F 41.0 °F 87% 30.74 in 6.2 mi SE 5.8 mph - N/A   Overcast
11:30 AM 44.6 °F 40.7 °F 41.0 °F 87% 30.74 in 6.2 mi SE 6.9 mph - N/A   Overcast
12:00 PM 45 °F - 40 °F 75% 30.77 in 19 mi Calm Calm - -   Overcast
12:00 PM 44.6 °F - 39.2 °F 81% 30.74 in 6.2 mi Calm Calm - N/A   Overcast
12:30 PM 44.6 °F - 39.2 °F 81% 30.74 in 6.2 mi ESE 1.2 mph - N/A   Overcast
1:00 PM 46.4 °F - 39.2 °F 76% 30.74 in 6.2 mi ESE 1.2 mph - N/A   Overcast
1:30 PM 46.4 °F - 39.2 °F 76% 30.74 in 6.2 mi Calm Calm - N/A   Overcast
2:00 PM 46.4 °F - 39.2 °F 76% 30.77 in 6.2 mi West 1.2 mph - N/A   Mostly Cloudy
2:30 PM 46.4 °F - 39.2 °F 76% 30.74 in 6.2 mi WSW 2.3 mph - N/A   Mostly Cloudy
3:00 PM 46.4 °F - 41.0 °F 81% 30.77 in 6.2 mi West 2.3 mph - N/A   Mostly Cloudy
3:30 PM 46.4 °F - 41.0 °F 81% 30.77 in 6.2 mi WNW 1.2 mph - N/A   Mostly Cloudy
4:00 PM 44.6 °F - 41.0 °F 87% 30.77 in 6.2 mi East 2.3 mph - N/A   Mostly Cloudy
4:30 PM 44.6 °F 43.1 °F 41.0 °F 87% 30.74 in 6.2 mi ESE 3.5 mph - N/A   Mostly Cloudy
5:00 PM 42.8 °F 41.1 °F 41.0 °F 93% 30.74 in 6.2 mi SE 3.5 mph - N/A   Mostly Cloudy
5:30 PM 42.8 °F 41.1 °F 39.2 °F 87% 30.77 in 6.2 mi ESE 3.5 mph - N/A   Mostly Cloudy
6:00 PM 43 °F - 41 °F 89% 30.78 in 19 mi SE 4.5 mph - -   Mostly Cloudy
6:00 PM 42.8 °F 40.1 °F 41.0 °F 93% 30.77 in 6.2 mi SE 4.6 mph - N/A   Mostly Cloudy
6:30 PM 42.8 °F - 41.0 °F 93% 30.77 in 6.2 mi SSE 2.3 mph - N/A   Mostly Cloudy
7:00 PM 42.8 °F - 39.2 °F 87% 30.77 in 6.2 mi Variable 1.2 mph - N/A   Mostly Cloudy
7:30 PM 42.8 °F - 41.0 °F 93% 30.77 in 6.2 mi Variable 1.2 mph - N/A   Mostly Cloudy
8:00 PM 42.8 °F - 41.0 °F 93% 30.80 in 6.2 mi South 2.3 mph - N/A   Mostly Cloudy
8:30 PM 42.8 °F - 41.0 °F 93% 30.80 in 6.2 mi NW 2.3 mph - N/A   Mostly Cloudy
9:00 PM 42.8 °F - 41.0 °F 93% 30.80 in 6.2 mi Variable 1.2 mph - N/A   Mostly Cloudy
9:30 PM 42.8 °F - 41.0 °F 93% 30.80 in 6.2 mi SE 1.2 mph - N/A   Mostly Cloudy
10:00 PM 42.8 °F - 41.0 °F 93% 30.80 in 6.2 mi ESE 1.2 mph - N/A   Mostly Cloudy
10:30 PM 42.8 °F - 41.0 °F 93% 30.80 in 6.2 mi NE 2.3 mph - N/A   Overcast
11:00 PM 42.8 °F - 41.0 °F 93% 30.80 in 6.2 mi South 1.2 mph - N/A   Overcast
11:30 PM 42.8 °F 41.1 °F 41.0 °F 93% 30.80 in 6.2 mi SE 3.5 mph - N/A   Overcast